This is the latest recevied weather packets stored in our database for station/object N6GPM. If no packets are shown the sender has not sent any weather packets the latest 10 day(s).
| Time | Temp. | Humidity | Pressure | Rain* | Wind** | Luminosity | Snow |
|---|---|---|---|---|---|---|---|
| 1777233489 | 15.56° C | 64% | 1017.4 hPa | 0 mm | - | 225 W/m² | - |
| 1777233189 | 15° C | 64% | 1017.3 hPa | 0 mm | - | 916 W/m² | - |
| 1777232889 | 15° C | 64% | 1017.2 hPa | 0 mm | - | 848 W/m² | - |
| 1777232588 | 15° C | 64% | 1017.4 hPa | 0 mm | - | 156 W/m² | - |
| 1777232287 | 15° C | 66% | 1017.4 hPa | 0 mm | - | 284 W/m² | - |
| 1777231982 | 13.89° C | 67% | 1017.5 hPa | 0 mm | - | 770 W/m² | - |
| 1777231680 | 13.89° C | 69% | 1017.3 hPa | 0 mm | - | 832 W/m² | - |
| 1777231376 | 14.44° C | 68% | 1017.5 hPa | 0 mm | - | 206 W/m² | - |
| 1777231071 | 14.44° C | 67% | 1017.4 hPa | 0 mm | - | 186 W/m² | - |
| 1777230768 | 15° C | 66% | 1017.5 hPa | 0 mm | - | 675 W/m² | - |
| 1777230463 | 15.56° C | 66% | 1017.3 hPa | 0 mm | - | 971 W/m² | - |
| 1777230160 | 14.44° C | 66% | 1017.5 hPa | 0 mm | - | 897 W/m² | - |
| 1777229857 | 13.89° C | 68% | 1017.4 hPa | 0 mm | - | 775 W/m² | - |
| 1777229553 | 13.89° C | 70% | 1017.5 hPa | 0 mm | - | 820 W/m² | - |
| 1777229250 | 13.89° C | 72% | 1017.6 hPa | 0 mm | - | 381 W/m² | - |
| 1777228948 | 13.89° C | 71% | 1017.7 hPa | 0 mm | - | 407 W/m² | - |
| 1777228643 | 13.33° C | 72% | 1017.7 hPa | 0 mm | - | 1011 W/m² | - |
| 1777228339 | 13.33° C | 74% | 1017.4 hPa | 0 mm | - | 399 W/m² | - |
| 1777228034 | 13.33° C | 75% | 1017.5 hPa | 0 mm | - | 210 W/m² | - |
| 1777227729 | 12.78° C | 75% | 1017.4 hPa | 0 mm | - | 264 W/m² | - |
| 1777227425 | 12.78° C | 75% | 1017.4 hPa | 0 mm | - | 236 W/m² | - |
| 1777227121 | 12.78° C | 74% | 1017.7 hPa | 0 mm | - | 250 W/m² | - |
| 1777226817 | 12.22° C | 74% | 1017.5 hPa | 0 mm | - | 280 W/m² | - |
| 1777226516 | 12.78° C | 76% | 1017.6 hPa | 0 mm | - | 256 W/m² | - |
| 1777226212 | 13.33° C | 75% | 1017.4 hPa | 0 mm | - | 202 W/m² | - |
* Rain latest hour (hover to see other rain measurements)
** Current wind speed in m/s (hover to see current wind gust speed)